SV2RIM-2 Weather Reports


time (UTC)temp
F
wind
direction
speed
knots
gust
knots
rain 1hr
in
rain 24hr
in
rain mn
in
humidity
%
barometer
mb
20240305003518 44 248 5.2 11.3 0.43 1.11 0.85 83 1004.3
20240305002517 44 257 6.1 12.2 0.47 1.10 0.84 84 1004.4
20240305001517 44 249 6.1 13.0 0.47 1.06 0.79 85 1004.4
20240305000521 45 270 4.3 9.6 0.47 0.92 0.66 87 1004.5
20240304235517 45 260 2.6 4.3 0.45 0.85 0.58 88 1004.5
20240304234517 46 306 1.7 3.5 0.35 0.72 0.45 88 1004.5
20240304233517 46 260 0.9 2.6 0.36 0.68 0.42 91 1004.7
20240304232518 45 1 1.7 7.0 0.32 0.63 0.36 95 1004.7
20240304231538 48 325 1.7 4.3 0.30 0.58 0.32 90 1005.0
20240304230517 50 323 1.7 4.3 0.16 0.45 0.19 85 1004.5
20240304225538 50 333 1.7 4.3 0.13 0.40 0.13 84 1004.5
20240304224517 50 314 1.7 5.2 0.10 0.36 0.10 84 1004.4
20240304223517 50 327 2.6 4.3 0.09 0.32 0.05 84 1004.6
20240304222517 50 322 1.7 6.1 0.10 0.31 0.04 84 1004.5
20240304221517 50 303 1.7 2.6 0.08 0.29 0.02 84 1004.8
20240304220517 50 330 1.7 5.2 0.09 0.29 0.02 84 1005.0
20240304215517 50 290 1.7 3.5 0.09 0.26 0.26 84 1005.1
20240304214516 50 329 1.7 5.2 0.10 0.26 0.26 84 1005.2
20240304213517 49 213 0.9 1.7 0.09 0.23 0.23 86 1005.6
20240304212517 49 209 0.9 1.7 0.07 0.21 0.21 86 1005.7
20240304211517 50 193 0.9 1.7 0.09 0.21 0.21 85 1005.8
20240304210517 50 197 0.9 3.5 0.09 0.20 0.20 85 1006.0
20240304205517 50 211 0.9 3.5 0.08 0.18 0.18 85 1006.0
20240304204517 50 258 0.9 1.7 0.07 0.17 0.17 85 1006.1
20240304203517 50 247 0.0 0.9 0.05 0.14 0.14 86 1006.3
20240304202517 50 238 0.9 0.9 0.10 0.14 0.14 86 1006.4
20240304201517 50 243 0.9 1.7 0.10 0.12 0.12 85 1006.6
20240304200517 50 206 0.9 1.7 0.09 0.11 0.11 85 1006.7
20240304195537 50 185 0.9 2.6 0.08 0.10 0.10 85 1006.8
20240304194517 50 192 0.9 3.5 0.08 0.10 0.10 85 1006.9
20240304193517 51 202 0.9 1.7 0.07 0.09 0.09 84 1006.9
20240304192638 51 265 0.0 2.6 0.02 0.04 0.04 84 1006.9
20240304191517 52 204 0.9 2.6 0.00 0.02 0.02 82 1007.0
20240304190517 53 324 0.9 3.5 0.00 0.02 0.02 80 1007.0
20240304185517 53 269 0.9 5.2 0.00 0.02 0.02 80 1007.0
20240304184517 53 303 1.7 2.6 0.00 0.02 0.02 80 1007.0
20240304183517 53 331 0.9 3.5 0.00 0.02 0.02 81 1007.1
20240304182517 53 305 0.9 2.6 0.00 0.02 0.02 81 1007.3
20240304181516 53 19 0.9 4.3 0.00 0.02 0.02 81 1007.6
20240304180517 53 320 0.9 1.7 0.00 0.02 0.02 80 1007.6
20240304175517 53 16 0.9 2.6 0.00 0.02 0.02 80 1007.8
20240304174538 53 262 0.9 2.6 0.00 0.02 0.02 80 1007.9
20240304173537 53 311 1.7 3.5 0.00 0.02 0.02 80 1008.1
20240304172517 54 258 0.9 1.7 0.00 0.02 0.02 79 1008.3
20240304171517 54 336 0.9 1.7 0.00 0.02 0.02 79 1008.5
20240304170517 54 205 0.9 1.7 0.00 0.02 0.02 78 1008.7
20240304165517 54 318 0.9 3.5 0.01 0.02 0.02 78 1008.7
20240304164517 54 52 0.9 3.5 0.01 0.02 0.02 78 1008.7
20240304163517 54 351 0.9 3.5 0.01 0.02 0.02 78 1008.6
20240304162517 54 219 0.9 4.3 0.01 0.02 0.02 78 1008.7
20240304161517 54 233 0.9 3.5 0.01 0.02 0.02 77 1008.8
20240304160517 54 193 1.7 3.5 0.01 0.02 0.02 77 1008.8
20240304155517 54 205 0.9 2.6 0.00 0.01 0.01 78 1008.8
20240304154517 54 122 0.9 2.6 0.00 0.01 0.01 78 1008.8
20240304153517 54 194 0.9 4.3 0.00 0.01 0.01 78 1008.8
20240304152517 54 303 0.9 2.6 0.00 0.01 0.01 79 1008.9
20240304151618 54 262 0.9 1.7 0.00 0.01 0.01 79 1009.0
20240304150516 55 271 0.9 2.6 0.00 0.01 0.01 77 1009.2
20240304145557 55 244 0.9 2.6 0.00 0.01 0.01 77 1009.4
20240304144517 56 5 0.9 4.3 0.00 0.01 0.01 77 1009.3
20240304143518 55 355 0.9 2.6 0.00 0.01 0.01 77 1009.4
20240304142517 56 299 0.9 2.6 0.00 0.01 0.01 77 1009.5
20240304141516 56 265 0.9 3.5 0.00 0.01 0.01 77 1009.7
20240304140517 57 191 0.9 1.7 0.00 0.01 0.01 76 1009.9
20240304135517 57 197 0.9 3.5 0.00 0.01 0.01 75 1010.0
20240304134517 56 212 0.9 3.5 0.00 0.01 0.01 76 1010.1
20240304133517 56 202 0.9 3.5 0.00 0.01 0.01 78 1010.2
20240304132518 57 206 0.9 2.6 0.00 0.01 0.01 77 1010.4
20240304131517 57 243 0.9 1.7 0.00 0.01 0.01 76 1010.5
20240304130516 56 321 0.0 0.9 0.00 0.01 0.01 78 1010.6
20240304125557 56 237 0.9 2.6 0.00 0.01 0.01 79 1010.7
20240304124517 57 279 0.9 1.7 0.00 0.01 0.01 77 1010.8
20240304123517 57 304 0.9 1.7 0.00 0.01 0.01 77 1011.1
20240304122516 56 294 0.9 1.7 0.00 0.01 0.01 80 1011.3
20240304121517 56 334 0.9 1.7 0.00 0.01 0.01 81 1011.3
20240304120537 57 331 0.9 1.7 0.00 0.01 0.01 80 1011.4
20240304115518 57 256 0.9 1.7 0.00 0.01 0.01 83 1011.6
20240304114517 59 205 0.0 0.9 0.00 0.01 0.01 80 1011.9
20240304113517 60 331 0.0 2.6 0.00 0.01 0.01 78 1012.0
20240304112517 58 286 0.9 1.7 0.00 0.01 0.01 79 1012.3
20240304111517 57 222 0.0 1.7 0.00 0.01 0.01 79 1012.5
20240304110517 58 234 0.0 0.9 0.00 0.04 0.01 77 1012.6
20240304105517 57 243 0.9 1.7 0.00 0.04 0.01 79 1012.7
20240304104518 57 246 0.0 0.9 0.00 0.04 0.01 78 1012.9
20240304103537 58 250 0.0 1.7 0.00 0.05 0.01 76 1012.9
20240304102517 56 265 0.9 0.9 0.00 0.05 0.01 79 1013.0
20240304101517 57 326 0.9 1.7 0.00 0.05 0.01 80 1013.0
20240304100517 58 238 0.9 0.9 0.00 0.05 0.01 77 1013.1
20240304095517 57 263 0.9 1.7 0.00 0.05 0.01 78 1013.1
20240304094516 57 256 0.0 1.7 0.00 0.05 0.01 76 1013.2
20240304093517 56 249 0.0 0.9 0.00 0.05 0.01 78 1013.2
20240304092517 55 246 0.9 1.7 0.00 0.05 0.01 79 1013.3
20240304091517 56 258 0.0 0.9 0.00 0.05 0.01 78 1013.3
20240304090538 55 270 0.0 0.9 0.00 0.05 0.01 79 1013.3
20240304085517 54 242 0.9 1.7 0.00 0.05 0.01 79 1013.5
20240304084517 54 217 0.0 0.9 0.00 0.05 0.01 80 1013.4
20240304083517 54 215 0.0 0.9 0.00 0.05 0.01 80 1013.4
20240304082517 55 221 0.0 0.9 0.00 0.09 0.01 78 1013.4
20240304081517 55 225 0.0 0.0 0.00 0.09 0.01 76 1013.3
20240304080538 54 338 0.0 0.9 0.00 0.09 0.01 78 1013.4
20240304075517 53 277 0.0 0.0 0.00 0.09 0.01 79 1013.4
20240304074517 53 333 0.0 0.9 0.00 0.09 0.01 79 1013.4
20240304073517 52 296 0.0 0.9 0.00 0.09 0.01 80 1013.4
20240304072558 53 226 0.0 0.9 0.00 0.09 0.01 79 1013.4
20240304071517 54 267 0.0 0.9 0.00 0.09 0.01 77 1013.3
20240304070537 54 225 0.0 0.0 0.01 0.10 0.01 76 1013.3
20240304065517 53 105 0.0 0.0 0.01 0.10 0.01 77 1013.4
20240304064517 52 225 0.0 0.0 0.01 0.10 0.01 78 1013.4
20240304063537 52 269 0.0 0.9 0.01 0.10 0.01 78 1013.3
20240304062517 53 315 0.0 0.9 0.01 0.12 0.01 76 1013.4
20240304061517 52 210 0.0 0.0 0.01 0.12 0.01 77 1013.3
20240304060517 51 318 0.0 0.9 0.00 0.11 0.00 77 1013.4
20240304055517 50 324 0.0 0.9 0.00 0.11 0.00 79 1013.4
20240304054537 50 282 0.0 0.9 0.00 0.11 0.00 79 1013.4
20240304053518 49 328 0.9 1.7 0.00 0.11 0.00 80 1013.3
20240304052517 50 334 0.9 1.7 0.00 0.11 0.00 79 1013.2
20240304051537 50 346 0.0 0.9 0.00 0.11 0.00 79 1013.2
20240304050517 50 304 0.9 1.7 0.00 0.11 0.00 79 1013.2
20240304045516 50 306 0.0 0.9 0.00 0.11 0.00 78 1013.2
20240304044537 50 295 0.0 0.9 0.00 0.11 0.00 78 1013.1
20240304043518 50 267 0.0 0.9 0.00 0.11 0.00 77 1013.1
20240304042517 50 225 0.0 0.9 0.00 0.11 0.00 77 1013.1
20240304041517 49 298 0.0 0.0 0.00 0.11 0.00 77 1013.0
20240304040517 49 0.0 0.0 0.00 0.11 0.00 77 1013.2
20240304035517 50 324 0.0 0.9 0.00 0.11 0.00 77 1013.2
20240304034517 50 297 0.0 0.9 0.00 0.11 0.00 77 1013.0
20240304033517 50 257 0.0 0.9 0.00 0.11 0.00 77 1012.9
20240304032517 50 315 0.9 0.9 0.00 0.11 0.00 77 1012.9
20240304031517 50 284 0.0 0.0 0.00 0.11 0.00 77 1012.8
20240304030538 51 275 0.0 0.9 0.00 0.11 0.00 77 1012.7
20240304025517 51 225 0.0 0.0 0.00 0.11 0.00 76 1012.7
20240304024517 51 225 0.0 0.9 0.00 0.11 0.00 76 1012.7
20240304023517 51 0.0 0.0 0.00 0.11 0.00 76 1012.6
20240304022516 51 0.0 0.0 0.00 0.11 0.00 76 1012.6
20240304021517 51 225 0.0 0.9 0.00 0.11 0.00 75 1012.7
20240304020518 51 213 0.0 0.9 0.00 0.11 0.00 75 1012.7
20240304015517 51 223 0.0 0.9 0.00 0.11 0.00 75 1012.8
20240304014517 51 225 0.0 0.9 0.00 0.11 0.00 75 1012.7
20240304013516 51 219 0.0 0.9 0.00 0.11 0.00 75 1012.6
20240304012517 51 0.0 0.0 0.00 0.11 0.00 75 1012.7
20240304011538 51 225 0.0 0.0 0.00 0.11 0.00 74 1012.8
20240304010517 51 223 0.0 0.9 0.00 0.11 0.00 74 1012.8
20240304005518 51 0.0 0.0 0.00 0.11 0.00 74 1012.9
20240304004517 52 308 0.0 0.9 0.00 0.11 0.00 73 1012.8